H1 CPF 1 NER 2017 5 17 9 6371 glonass101 H2 0606203 9101 29672 2017 5 17 0 0 0 2017 5 20 23 45 0 900 1 1 0 0 0 H9 10 0 57890 0.00000 0 8036554.371 24244130.632 616285.722 10 0 57890 900.00000 0 8123431.567 23914121.551 3830250.808 10 0 57890 1800.00000 0 8020932.306 23224842.849 6970119.023 10 0 57890 2700.00000 0 7685787.081 22214185.687 9975084.942 10 0 57890 3600.00000 0 7083861.765 20929963.865 12786881.326 10 0 57890 4500.00000 0 6191854.902 19427897.419 15350904.022 10 0 57890 5400.00000 0 4998548.693 17769281.962 17617271.916 10 0 57890 6300.00000 0 3505558.569 16018439.653 19541801.440 10 0 57890 7200.00000 0 1727547.005 14240057.354 21086876.325 10 0 57890 8100.00000 0 -308110.835 12496522.637 22222195.066 10 0 57890 9000.00000 0 -2562199.223 10845368.916 22925380.562 10 0 57890 9900.00000 0 -4985038.710 9336937.057 23182438.681 10 0 57890 10800.00000 0 -7518313.324 8012352.219 22988055.266 10 0 57890 11700.00000 0 -10097274.333 6901901.906 22345724.012 10 0 57890 12600.00000 0 -12653230.260 6023884.750 21267700.836 10 0 57890 13500.00000 0 -15116220.047 5383979.816 19774783.884 10 0 57890 14400.00000 0 -17417757.738 4975164.205 17895921.806 10 0 57890 15300.00000 0 -19493533.028 4778183.357 15667656.757 10 0 57890 16200.00000 0 -21285953.334 4762554.525 13133412.238 10 0 57890 17100.00000 0 -22746419.145 4888060.662 10342639.469 10 0 57890 18000.00000 0 -23837235.369 5106670.522 7349839.556 10 0 57890 18900.00000 0 -24533076.916 5364801.836 4213481.631 10 0 57890 19800.00000 0 -24821945.929 5605829.365 994839.808 10 0 57890 20700.00000 0 -24705580.114 5772728.769 -2243226.150 10 0 57890 21600.00000 0 -24199295.610 5810741.367 -5437520.285 10 0 57890 22500.00000 0 -23331272.482 5669944.143 -8525763.277 10 0 57890 23400.00000 0 -22141315.082 5307613.898 -11447822.015 10 0 57890 24300.00000 0 -20679142.134 4690283.853 -14146890.256 10 0 57890 25200.00000 0 -19002281.294 3795404.908 -16570596.360 10 0 57890 26100.00000 0 -17173659.339 2612541.367 -18672016.136 10 0 57890 27000.00000 0 -15258991.342 1144051.353 -20410571.614 10 0 57890 27900.00000 0 -13324079.625 -594775.646 -21752799.479 10 0 57890 28800.00000 0 -11432136.122 -2576128.441 -22672975.974 10 0 57890 29700.00000 0 -9641239.522 -4760612.554 -23153588.393 10 0 57890 30600.00000 0 -8002031.859 -7098677.086 -23185646.441 10 0 57890 31500.00000 0 -6555748.413 -9532469.837 -22768829.776 10 0 57890 32400.00000 0 -5332660.141 -11998043.452 -21911471.072 10 0 57890 33300.00000 0 -4350990.415 -14427821.489 -20630376.656 10 0 57890 34200.00000 0 -3616348.109 -16753223.173 -18950489.436 10 0 57890 35100.00000 0 -3121697.826 -18907339.628 -16904401.242 10 0 57890 36000.00000 0 -2847866.201 -20827552.659 -14531724.039 10 0 57890 36900.00000 0 -2764561.534 -22457989.524 -11878331.636 10 0 57890 37800.00000 0 -2831863.245 -23751713.966 -8995485.576 10 0 57890 38700.00000 0 -3002118.610 -24672564.297 -5938860.666 10 0 57890 39600.00000 0 -3222167.758 -25196563.488 -2767487.514 10 0 57890 40500.00000 0 -3435804.415 -25312843.392 457369.213 10 0 57890 41400.00000 0 -3586370.082 -25024044.801 3673376.761 10 0 57890 42300.00000 0 -3619373.635 -24346176.202 6818323.392 10 0 57890 43200.00000 0 -3485026.875 -23307936.110 9831308.951 10 0 57890 44100.00000 0 -3140589.609 -21949525.810 12653914.909 10 0 57890 45000.00000 0 -2552425.179 -20321000.340 15231331.894 10 0 57890 45900.00000 0 -1697678.862 -18480224.708 17513423.285 10 0 57890 46800.00000 0 -565506.678 -16490518.912 19455704.344 10 0 57890 47700.00000 0 842199.589 -14418088.595 21020217.495 10 0 57890 48600.00000 0 2510624.669 -12329347.506 22176286.146 10 0 57890 49500.00000 0 4412390.791 -10288242.908 22901131.415 10 0 57890 50400.00000 0 6508455.703 -8353695.631 23180338.368 10 0 57890 51300.00000 0 8749513.512 -6577262.134 23008161.193 10 0 57890 52200.00000 0 11077842.683 -5001117.202 22387659.528 10 0 57890 53100.00000 0 13429526.012 -3656442.947 21330661.464 10 0 57890 54000.00000 0 15736951.151 -2562292.895 19857552.126 10 0 57890 54900.00000 0 17931487.554 -1724980.028 17996890.341 10 0 57890 55800.00000 0 19946227.270 -1138015.515 15784859.600 10 0 57890 56700.00000 0 21718673.646 -782601.098 13264563.287 10 0 57890 57600.00000 0 23193263.466 -628654.198 10485177.684 10 0 57890 58500.00000 0 24323614.661 -636321.592 7500979.813 10 0 57890 59400.00000 0 25074403.253 -757915.976 4370270.218 10 0 57890 60300.00000 0 25422789.084 -940191.202 1154213.337 10 0 57890 61200.00000 0 25359329.387 -1126857.066 -2084379.654 10 0 57890 62100.00000 0 24888341.669 -1261224.112 -5282299.441 10 0 57890 63000.00000 0 24027701.358 -1288863.419 -8377191.903 10 0 57890 63900.00000 0 22808084.324 -1160166.133 -11308789.458 10 0 57890 64800.00000 0 21271688.348 -832692.314 -14020094.775 10 0 57890 65700.00000 0 19470489.823 -273208.462 -16458492.693 10 0 57890 66600.00000 0 17464111.557 540672.802 -18576768.298 10 0 57890 67500.00000 0 15317393.389 1619319.815 -20334011.793 10 0 57890 68400.00000 0 13097769.074 2960424.164 -21696393.745 10 0 57890 69300.00000 0 10872560.047 4548884.515 -22637797.351 10 0 57890 70200.00000 0 8706299.017 6357235.379 -23140297.671 10 0 57890 71100.00000 0 6658193.877 8346601.552 -23194480.956 10 0 57890 72000.00000 0 4779835.753 10468137.298 -22799600.238 10 0 57890 72900.00000 0 3113243.876 12664889.812 -21963566.390 10 0 57890 73800.00000 0 1689325.518 14874009.510 -20702776.587 10 0 57890 74700.00000 0 526811.879 17029215.923 -19041784.764 10 0 57890 75600.00000 0 -368288.984 19063418.044 -17012821.092 10 0 57890 76500.00000 0 -1002702.134 20911382.024 -14655169.819 10 0 57890 77400.00000 0 -1395360.345 22512337.271 -12014416.996 10 0 57890 78300.00000 0 -1576366.754 23812414.695 -9141581.686 10 0 57890 79200.00000 0 -1585489.619 24766817.494 -6092146.012 10 0 57890 80100.00000 0 -1470252.250 25341635.573 -2925001.350 10 0 57890 81000.00000 0 -1283697.663 25515228.921 298670.698 10 0 57890 81900.00000 0 -1081920.921 25279122.620 3516562.578 10 0 57890 82800.00000 0 -921471.822 24638375.732 6666429.226 10 0 57890 83700.00000 0 -856736.244 23611407.731 9687279.039 10 0 57890 84600.00000 0 -937405.773 22229288.169 12520545.425 10 0 57890 85500.00000 0 -1206142.021 20534517.341 15111216.877 10 0 57891 0.00000 0 -1696534.456 18579346.752 17408904.149 10 0 57891 900.00000 0 -2431439.491 16423707.130 19368824.114 10 0 57891 1800.00000 0 -3421771.285 14132828.919 20952680.317 10 0 57891 2700.00000 0 -4665800.071 11774652.449 22129423.252 10 0 57891 3600.00000 0 -6148988.237 9417134.769 22875874.098 10 0 57891 4500.00000 0 -7844375.978 7125565.048 23177198.583 10 0 57891 5400.00000 0 -9713503.051 4960000.349 23027220.242 10 0 57891 6300.00000 0 -11707831.288 2972929.342 22428565.145 10 0 57891 7200.00000 0 -13770610.744 1207262.521 21392633.462 10 0 57891 8100.00000 0 -15839113.068 -305265.924 19939396.590 10 0 57891 9000.00000 0 -17847139.479 -1545216.468 18097022.174 10 0 57891 9900.00000 0 -19727698.093 -2506034.852 15901333.072 10 0 57891 10800.00000 0 -21415737.479 -3194089.552 13395110.020 10 0 57891 11700.00000 0 -22850820.105 -3628154.463 10627251.329 10 0 57891 12600.00000 0 -23979621.288 -3838359.226 7651806.546 10 0 57891 13500.00000 0 -24758146.454 -3864652.920 4526903.960 10 0 57891 14400.00000 0 -25153571.406 -3754848.152 1313594.532 10 0 57891 15300.00000 0 -25145626.603 -3562330.954 -1925362.987 10 0 57891 16200.00000 0 -24727466.348 -3343536.450 -5126749.724 10 0 57891 17100.00000 0 -23905986.334 -3155300.350 -8228140.425 10 0 57891 18000.00000 0 -22701577.030 -3052201.276 -11169136.534 10 0 57891 18900.00000 0 -21147324.947 -3084008.878 -13892552.868 10 0 57891 19800.00000 0 -19287697.492 -3293347.389 -16345533.670 10 0 57891 20700.00000 0 -17176769.055 -3713674.248 -18480575.805 10 0 57891 21600.00000 0 -14876065.012 -4367659.149 -20256439.653 10 0 57891 22500.00000 0 -12452115.750 -5266031.144 -21638931.092 10 0 57891 23400.00000 0 -9973824.204 -6406941.030 -22601541.072 10 0 57891 24300.00000 0 -7509757.054 -7775864.219 -23125932.583 10 0 57891 25200.00000 0 -5125471.817 -9346046.602 -23202267.970 10 0 57891 26100.00000 0 -2880989.570 -11079473.306 -22829372.624 10 0 57891 27000.00000 0 -828516.026 -12928318.964 -22014734.123 10 0 57891 27900.00000 0 989497.281 -14836818.615 -20774338.597 10 0 57891 28800.00000 0 2541874.307 -16743481.523 -19132348.795 10 0 57891 29700.00000 0 3809758.385 -18583556.573 -17120630.781 10 0 57891 30600.00000 0 4787138.313 -20291648.059 -14778138.458 10 0 57891 31500.00000 0 5480837.253 -21804374.635 -12150167.391 10 0 57891 32400.00000 0 5909966.859 -23062962.639 -9287491.373 10 0 57891 33300.00000 0 6104870.644 -24015667.571 -6245397.067 10 0 57891 34200.00000 0 6105601.212 -24619924.264 -3082633.887 10 0 57891 35100.00000 0 5959995.001 -24844137.169 139702.280 10 0 57891 36000.00000 0 5721424.618 -24669036.460 3359331.608 10 0 57891 36900.00000 0 5446322.199 -24088543.127 6513978.094 10 0 57891 37800.00000 0 5191576.870 -23110106.028 9542560.920 10 0 57891 38700.00000 0 5011914.979 -21754495.296 12386367.473 10 0 57891 39600.00000 0 4957372.812 -20055058.741 14990185.982 10 0 57891 40500.00000 0 5070968.294 -18056469.948 17303376.287 10 0 57891 41400.00000 0 5386670.385 -15813017.826 19280858.117 10 0 57891 42300.00000 0 5927753.029 -13386506.621 20883997.340 10 0 57891 43200.00000 0 6705605.007 -10843851.773 22081372.402 10 0 57891 44100.00000 0 7719048.396 -8254470.132 22849405.109 10 0 57891 45000.00000 0 8954197.281 -5687572.177 23172842.131 10 0 57891 45900.00000 0 10384865.867 -3209468.523 23045076.352 10 0 57891 46800.00000 0 11973511.946 -881003.034 22468300.030 10 0 57891 47700.00000 0 13672678.802 1244779.727 21453484.936 10 0 57891 48600.00000 0 15426877.121 3124634.402 20020188.046 10 0 57891 49500.00000 0 17174829.232 4726697.351 18196184.934 10 0 57891 50400.00000 0 18851981.747 6031584.336 16016936.721 10 0 57891 51300.00000 0 20393180.556 7032956.557 13524900.162 10 0 57891 52200.00000 0 21735394.372 7737530.893 10768694.041 10 0 57891 53100.00000 0 22820370.301 8164534.188 7802138.599 10 0 57891 54000.00000 0 23597107.362 8344625.632 4683187.782 10 0 57891 54900.00000 0 24024041.520 8318334.549 1472776.743 10 0 57891 55800.00000 0 24070848.120 8134082.022 -1766390.730 10 0 57891 56700.00000 0 23719784.388 7845872.997 -4971088.878 10 0 57891 57600.00000 0 22966514.730 7510759.697 -8078824.030 10 0 57891 58500.00000 0 21820384.289 7186186.792 -11029069.324 10 0 57891 59400.00000 0 20304130.226 6927333.394 -13764454.273 10 0 57891 60300.00000 0 18453044.501 6784566.418 -16231884.875 10 0 57891 61200.00000 0 16313625.396 6801114.211 -18383571.933 10 0 57891 62100.00000 0 13941776.459 7011059.065 -20177947.944 10 0 57891 63000.00000 0 11400630.162 7437732.843 -21580455.847 10 0 57891 63900.00000 0 8758088.695 8092582.088 -22564195.916 10 0 57891 64800.00000 0 6084185.112 8974548.693 -23110420.449 10 0 57891 65700.00000 0 3448374.505 10069990.316 -23208869.043 10 0 57891 66600.00000 0 916866.826 11353142.057 -22857940.358 10 0 57891 67500.00000 0 -1449889.828 12787098.660 -22064699.262 10 0 57891 68400.00000 0 -3599473.618 14325275.262 -20844721.055 10 0 57891 69300.00000 0 -5489410.099 15913285.371 -19221777.119 10 0 57891 70200.00000 0 -7088673.582 17491158.081 -17227368.803 10 0 57891 71100.00000 0 -8378709.579 18995803.021 -14900118.642 10 0 57891 72000.00000 0 -9353938.547 20363621.602 -12285030.289 10 0 57891 72900.00000 0 -10021722.277 21533157.341 -9432630.479 10 0 57891 73800.00000 0 -10401795.943 22447676.437 -6398008.299 10 0 57891 74700.00000 0 -10525190.366 23057572.379 -3239768.800 10 0 57891 75600.00000 0 -10432689.784 23322495.367 -18919.525 10 0 57891 76500.00000 0 -10172889.348 23213118.193 3202290.251 10 0 57891 77400.00000 0 -9799932.976 22712464.723 6361556.534 10 0 57891 78300.00000 0 -9371025.564 21816744.745 9397712.330 10 0 57891 79200.00000 0 -8943823.086 20535658.814 12251902.087 10 0 57891 80100.00000 0 -8573809.549 18892158.399 14868716.813 10 0 57891 81000.00000 0 -8311770.789 16921668.882 17197268.392 10 0 57891 81900.00000 0 -8201471.591 14670805.093 19192182.370 10 0 57891 82800.00000 0 -8277634.676 12195630.267 20814489.623 10 0 57891 83700.00000 0 -8564308.085 9559528.419 22032399.060 10 0 57891 84600.00000 0 -9073691.698 6830776.470 22821935.366 10 0 57891 85500.00000 0 -9805474.789 4079915.694 23167428.065 10 0 57892 0.00000 0 -10746715.256 1377030.786 23061840.927 10 0 57892 900.00000 0 -11872268.832 -1210950.546 22506933.412 10 0 57892 1800.00000 0 -13145751.980 -3622824.847 21513249.425 10 0 57892 2700.00000 0 -14521001.688 -5805438.598 20099931.427 10 0 57892 3600.00000 0 -15943970.916 -7715675.327 18294362.218 10 0 57892 4500.00000 0 -17354981.567 -9322018.766 16131639.855 10 0 57892 5400.00000 0 -18691239.629 -10605626.153 13653895.196 10 0 57892 6300.00000 0 -19889505.678 -11560865.796 10909465.026 10 0 57892 7200.00000 0 -20888806.406 -12195296.168 7951937.355 10 0 57892 8100.00000 0 -21633070.680 -12529088.039 4839088.481 10 0 57892 9000.00000 0 -22073576.456 -12593915.409 1631734.164 10 0 57892 9900.00000 0 -22171103.032 -12431364.097 -1607480.542 10 0 57892 10800.00000 0 -21897695.867 -12090927.995 -4815326.863 10 0 57892 11700.00000 0 -21237968.296 -11627680.795 -7929246.612 10 0 57892 12600.00000 0 -20189884.751 -11099724.810 -10888588.467 10 0 57892 13500.00000 0 -18764992.863 -10565527.774 -13635800.352 10 0 57892 14400.00000 0 -16988095.746 -10081262.633 -16117553.500 10 0 57892 15300.00000 0 -14896379.873 -9698264.427 -18285775.788 10 0 57892 16200.00000 0 -12538037.058 -9460712.387 -20098574.516 10 0 57892 17100.00000 0 -9970440.023 -9403634.859 -21521031.806 10 0 57892 18000.00000 0 -7257949.450 -9551320.115 -22525858.736 10 0 57892 18900.00000 0 -4469444.856 -9916198.227 -23093897.712 10 0 57892 19800.00000 0 -1675682.263 -10498238.990 -23214465.718 10 0 57892 20700.00000 0 1053412.088 -11284888.976 -22885534.168 10 0 57892 21600.00000 0 3651401.193 -12251548.451 -22113744.147 10 0 57892 22500.00000 0 6057841.814 -13362566.649 -20914258.577 10 0 57892 23400.00000 0 8220532.960 -14572712.852 -19310455.516 10 0 57892 24300.00000 0 10097418.174 -15829061.549 -17333469.304 10 0 57892 25200.00000 0 11658065.849 -17073213.302 -15021588.540 10 0 57892 26100.00000 0 12884668.956 -18243759.534 -12419522.143 10 0 57892 27000.00000 0 13772525.126 -19278889.614 -9577546.791 10 0 57892 27900.00000 0 14329979.016 -20119032.910 -6550550.832 10 0 57892 28800.00000 0 14577830.494 -20709426.849 -3396991.711 10 0 57892 29700.00000 0 14548233.919 -21002504.893 -177785.365 10 0 57892 30600.00000 0 14283134.404 -20960005.320 3044852.679 10 0 57892 31500.00000 0 13832305.901 -20554712.806 6208593.489 10 0 57892 32400.00000 0 13251072.416 -19771759.369 9252186.720 10 0 57892 33300.00000 0 12597806.898 -18609429.069 12116636.410 10 0 57892 34200.00000 0 11931311.842 -17079430.855 14746338.547 10 0 57892 35100.00000 0 11308190.943 -15206625.749 17090158.885 10 0 57892 36000.00000 0 10780322.019 -13028216.839 19102430.220 10 0 57892 36900.00000 0 10392537.712 -10592432.934 20743849.494 10 0 57892 37800.00000 0 10180612.376 -7956757.772 21982256.742 10 0 57892 38700.00000 0 10169641.282 -5185775.823 22793279.822 10 0 57892 39600.00000 0 10372882.305 -2348722.234 23160831.081 10 0 57892 40500.00000 0 10791111.152 483162.731 23077444.796 10 0 57892 41400.00000 0 11412519.842 3239365.615 22544447.070 10 0 57892 42300.00000 0 12213165.173 5852804.383 21571953.032 10 0 57892 43200.00000 0 13157950.528 8262392.703 20178689.595 10 0 57892 44100.00000 0 14202101.359 10415356.017 18391645.538 10 0 57892 45000.00000 0 15293073.151 12269201.397 16245554.447 10 0 57892 45900.00000 0 16372811.593 13793257.609 13782219.695 10 0 57892 46800.00000 0 17380268.896 14969719.828 11049694.319 10 0 57892 47700.00000 0 18254068.585 15794154.529 8101332.152 10 0 57892 48600.00000 0 18935204.121 16275443.474 4994729.726 10 0 57892 49500.00000 0 19369654.909 16435169.994 1790581.125 10 0 57892 50400.00000 0 19510806.643 16306475.073 -1448529.743 10 0 57892 51300.00000 0 19321571.446 15932433.896 -4659373.571 10 0 57892 52200.00000 0 18776116.481 15364024.316 -7779330.132 10 0 57892 53100.00000 0 17861127.027 14657776.218 -10747626.042 10 0 57892 54000.00000 0 16576550.472 13873204.196 -13506529.888 10 0 57892 54900.00000 0 14935790.372 13070134.711 -16002480.227 10 0 57892 55800.00000 0 12965343.614 12306042.651 -18187123.889 10 0 57892 56700.00000 0 10703897.439 11633510.855 -20018244.679 10 0 57892 57600.00000 0 8200925.869 11097919.907 -21460565.436 10 0 57892 58500.00000 0 5514845.815 10735464.772 -22486409.426 10 0 57892 59400.00000 0 2710810.937 10571580.172 -23076210.393 10 0 57892 60300.00000 0 -141764.422 10619838.738 -23218863.749 10 0 57892 61200.00000 0 -2971848.457 10881365.772 -22911914.479 10 0 57892 62100.00000 0 -5709493.665 11344792.764 -22161580.411 10 0 57892 63000.00000 0 -8288486.937 11986749.493 -20982612.256 10 0 57892 63900.00000 0 -10648840.469 12772872.512 -19397994.536 10 0 57892 64800.00000 0 -12739023.143 13659286.878 -17438493.965 10 0 57892 65700.00000 0 -14517842.863 14594498.920 -15142064.206 10 0 57892 66600.00000 0 -15955904.555 15521621.294 -12553118.117 10 0 57892 67500.00000 0 -17036585.931 16380838.215 -9721680.680 10 0 57892 68400.00000 0 -17756492.449 17112009.019 -6702437.634 10 0 57892 69300.00000 0 -18125373.952 17657302.522 -3553696.749 10 0 57892 70200.00000 0 -18165507.188 17963753.177 -336280.109 10 0 57892 71100.00000 0 -17910570.113 17985632.925 2887632.895 10 0 57892 72000.00000 0 -17404054.512 17686539.863 6055690.936 10 0 57892 72900.00000 0 -16697282.531 17041115.964 9106562.972 10 0 57892 73800.00000 0 -15847109.087 16036320.958 11981115.393 10 0 57892 74700.00000 0 -14913405.322 14672207.384 14623551.994 10 0 57892 75600.00000 0 -13956427.720 12962162.024 16982495.238 10 0 57892 76500.00000 0 -13034182.600 10932600.764 19011987.973 10 0 57892 77400.00000 0 -12199896.471 8622126.504 20672395.899 10 0 57892 78300.00000 0 -11499698.813 6080181.963 21931192.707 10 0 57892 79200.00000 0 -10970615.521 3365250.428 22763611.730 10 0 57892 80100.00000 0 -10638958.775 542676.717 23153150.140 10 0 57892 81000.00000 0 -10519182.855 -2317803.109 23091914.391 10 0 57892 81900.00000 0 -10613256.156 -5144721.936 22580798.454 10 0 57892 82800.00000 0 -10910578.031 -7867621.572 21629489.516 10 0 57892 83700.00000 0 -11388445.998 -10419758.338 20256299.233 10 0 57892 84600.00000 0 -12013055.299 -12740660.869 18487822.154 10 0 57892 85500.00000 0 -12740989.768 -14778432.099 16358426.637 10 0 57893 0.00000 0 -13521141.439 -16491697.945 13909587.363 10 0 57893 900.00000 0 -14296977.348 -17851119.617 11189071.722 10 0 57893 1800.00000 0 -15009056.701 -18840405.723 8249997.207 10 0 57893 2700.00000 0 -15597689.571 -19456779.905 5149777.956 10 0 57893 3600.00000 0 -16005622.907 -19710886.270 1948983.416 10 0 57893 4500.00000 0 -16180637.078 -19626136.357 -1289866.898 10 0 57893 5400.00000 0 -16077940.832 -19237527.686 -4503546.611 10 0 57893 6300.00000 0 -15662261.127 -18589986.103 -7629377.100 10 0 57893 7200.00000 0 -14909537.976 -17736304.856 -10606466.676 10 0 57893 8100.00000 0 -13808151.911 -16734770.514 -13376908.371 10 0 57893 9000.00000 0 -12359632.234 -15646578.820 -15886911.772 10 0 57893 9900.00000 0 -10578816.962 -14533151.857 -18087846.184 10 0 57893 10800.00000 0 -8493458.919 -13453471.229 -19937175.116 10 0 57893 11700.00000 0 -6143295.955 -12461540.192 -21399264.878 10 0 57893 12600.00000 0 -3578625.801 -11604081.201 -22446053.134 10 0 57893 13500.00000 0 -858446.278 -10918564.321 -23057566.570 10 0 57893 14400.00000 0 1951760.909 -10431647.256 -23222279.994 10 0 57893 15300.00000 0 4782510.436 -10158089.886 -22937312.311 10 0 57893 16200.00000 0 7562955.358 -10100186.068 -22208457.867 10 0 57893 17100.00000 0 10223582.672 -10247733.872 -21050054.422 10 0 57893 18000.00000 0 12698852.641 -10578543.262 -19484691.741 10 0 57893 18900.00000 0 14929675.035 -11059458.320 -17542767.267 10 0 57893 19800.00000 0 16865622.455 -11647850.277 -15261897.651 10 0 57893 20700.00000 0 18466791.598 -12293518.655 -12686197.211 10 0 57893 21600.00000 0 19705237.882 -12940921.336 -9865436.365 10 0 57893 22500.00000 0 20565925.882 -13531641.112 -6854095.031 10 0 57893 23400.00000 0 21047157.613 -14006986.589 -3710327.803 10 0 57893 24300.00000 0 21160461.719 -14310619.713 -494859.218 10 0 57893 25200.00000 0 20929948.457 -14391100.853 2730171.229 10 0 57893 26100.00000 0 20391157.013 -14204245.373 5902393.505 10 0 57893 27000.00000 0 19589442.505 -13715192.995 8960399.373 10 0 57893 27900.00000 0 18577968.972 -12900102.531 11844920.762 10 0 57893 28800.00000 0 17415391.071 -11747399.630 14499972.068 10 0 57893 29700.00000 0 16163320.321 -10258523.192 16873934.803 10 0 57893 30600.00000 0 14883681.066 -8448136.449 18920563.746 10 0 57893 31500.00000 0 13636066.346 -6343790.802 20599894.748 10 0 57893 32400.00000 0 12475204.389 -3985053.010 21879036.091 10 0 57893 33300.00000 0 11448642.358 -1422128.731 22732827.086 10 0 57893 34200.00000 0 10594745.477 1285963.266 23144349.820 10 0 57893 35100.00000 0 9941096.861 4073592.854 23105282.643 10 0 57893 36000.00000 0 9503366.963 6871006.577 22616086.757 10 0 57893 36900.00000 0 9284702.054 9606999.468 21686020.453 10 0 57893 37800.00000 0 9275659.242 12211659.791 20332978.901 10 0 57893 38700.00000 0 9454692.346 14619071.929 18583160.938 10 0 57893 39600.00000 0 9789169.265 16769863.575 16470567.999 10 0 57893 40500.00000 0 10236878.342 18613489.412 14036344.053 10 0 57893 41400.00000 0 10747959.841 20110154.218 11327968.997 10 0 57893 42300.00000 0 11267179.830 21232293.305 8398321.614 10 0 57893 43200.00000 0 11736448.494 21965547.227 5304631.248 10 0 57893 44100.00000 0 12097473.945 22309189.423 2107340.162 10 0 57893 45000.00000 0 12294436.507 22275989.212 -1131099.127 10 0 57893 45900.00000 0 12276567.525 21891517.209 -4347465.813 10 0 57893 46800.00000 0 12000521.027 21192924.492 -7479025.445 10 0 57893 47700.00000 0 11432435.931 20227249.615 -10464770.463 10 0 57893 48600.00000 0 10549600.288 19049327.824 -13246620.597 10 0 57893 49500.00000 0 9341646.734 17719393.566 -15770558.484 10 0 57893 50400.00000 0 7811228.997 16300479.916 -17987677.702 10 0 57893 51300.00000 0 5974151.795 14855726.396 -19855123.038 10 0 57893 52200.00000 0 3858949.896 13445709.483 -21336905.653 10 0 57893 53100.00000 0 1505935.470 12125908.134 -22404578.805 10 0 57893 54000.00000 0 -1034245.162 10944409.737 -23037763.130 10 0 57893 54900.00000 0 -3702484.211 9939950.931 -23224513.634 10 0 57893 55800.00000 0 -6433436.056 9140372.855 -22961523.694 10 0 57893 56700.00000 0 -9157999.725 8561552.610 -22254164.418 10 0 57893 57600.00000 0 -11805958.082 8206852.649 -21116360.498 10 0 57893 58500.00000 0 -14308665.853 8067108.353 -19570306.456 10 0 57893 59400.00000 0 -16601677.170 8121151.998 -17646029.588 10 0 57893 60300.00000 0 -18627206.278 8336849.504 -15380808.325 10 0 57893 61200.00000 0 -20336321.790 8672605.694 -12818456.942 10 0 57893 62100.00000 0 -21690786.014 9079274.807 -10008489.572 10 0 57893 63000.00000 0 -22664465.055 9502396.682 -7005178.410 10 0 57893 63900.00000 0 -23244252.647 9884665.793 -3866522.842 10 0 57893 64800.00000 0 -23430470.308 10168530.695 -653147.731 10 0 57893 65700.00000 0 -23236727.476 10298815.953 2572849.576 10 0 57893 66600.00000 0 -22689247.177 10225257.374 5749082.689 10 0 57893 67500.00000 0 -21825684.544 9904844.537 8814068.646 10 0 57893 68400.00000 0 -20693486.349 9303872.060 11708407.477 10 0 57893 69300.00000 0 -19347858.649 8399612.588 14375926.799 10 0 57893 70200.00000 0 -17849426.099 7181539.659 16764769.809 10 0 57893 71100.00000 0 -16261679.462 5652046.753 18828405.767 10 0 57893 72000.00000 0 -14648317.136 3826629.471 20526543.111 10 0 57893 72900.00000 0 -13070591.330 1733519.856 21825926.935 10 0 57893 73800.00000 0 -11584769.887 -587215.456 22701004.480 10 0 57893 74700.00000 0 -10239820.498 -3085078.951 23134444.396 10 0 57893 75600.00000 0 -9075415.225 -5700992.377 23117498.239 10 0 57893 76500.00000 0 -8120340.276 -8369518.698 22650195.396 10 0 57893 77400.00000 0 -7391379.339 -11021364.875 21741365.847 10 0 57893 78300.00000 0 -6892718.944 -13586062.089 20408488.487 10 0 57893 79200.00000 0 -6615902.288 -15994711.626 18677366.256 10 0 57893 80100.00000 0 -6540334.572 -18182681.022 16581633.090 10 0 57893 81000.00000 0 -6634319.061 -20092136.492 14162101.326 10 0 57893 81900.00000 0 -6856579.991 -21674304.034 11465961.900 10 0 57893 82800.00000 0 -7158207.074 -22891362.692 8545853.229 10 0 57893 83700.00000 0 -7484937.729 -23717889.084 5458817.818 10 0 57893 84600.00000 0 -7779678.167 -24141791.560 2265168.423 10 0 57893 85500.00000 0 -7985153.900 -24164694.415 -972712.041 99